Lamar, CO

2:11 PM MST on December 08, 2019 (GMT -0700)
Lamar Municipal

Weather History for KLAA - November, 2019

Change the Weather History Date:

Friday, November 15, 2019

  Actual Average Record
Temperature  
Mean Temperature 40 °F 40 °F  
Max Temperature 63 °F 57 °F 82 °F (1921)
Min Temperature 17 °F 24 °F 5 °F (1997)
Degree Days  
Heating Degree Days 25 25  
Month to date heating degree days 391 326  
Since 1 July heating degree days 961 793  
Cooling Degree Days 0 0  
Month to date cooling degree days 0 0  
Year to date cooling degree days 1406 1121  
Moisture  
Dew Point 25 °F    
Average Humidity 60    
Maximum Humidity 92    
Minimum Humidity 27    
Precipitation  
Precipitation 0.00 in 0.01 in 0.54 in (1961)
Month to date precipitation 0.01 0.26  
Year to date precipitation 7.96 14.68  
Sea Level Pressure  
Sea Level Pressure 30.12 in    
Wind  
Wind Speed 5 mph (WSW)    
Max Wind Speed 14 mph    
Max Gust Speed 17 mph    
Visibility 10 miles    
Events      
T = Trace of Precipitation, MM = Missing Value Source: NWS Daily Summary

Daily Weather History Graph

Daily Weather History Graph

Search for Another Location

Airport or City:

Astronomy

Nov. 15, 2019 Rise Set
Actual Time 6:31 AM MST 4:38 PM MST
Civil Twilight 6:03 AM MST 5:06 PM MST
Nautical Twilight 5:31 AM MST 5:38 PM MST
Astronomical Twilight 5:00 AM MST 6:09 PM MST
Moon 7:17 PM MST (11/15) 9:28 AM MST (11/15)
Length of Visible Light 11h 03m
Length of Day
10h 07m
Waning Gibbous, 89% of the Moon is Illuminated
Nov 15
Waning Gibbous
Nov 19
Last Quarter
Nov 26
New
Dec 3
First Quarter
Dec 11
Full

Hourly Weather History & Observations

Time (MST) Temp. Windchill Dew Point Humidity Pressure Visibility Wind Dir Wind Speed Gust Speed Precip Events Conditions
12:53 AM 23.0 °F - 19.0 °F 85% 30.22 in 10.0 mi Calm Calm - N/A   Clear
1:53 AM 24.1 °F 19.7 °F 19.9 °F 84% 30.21 in 10.0 mi West 3.5 mph - N/A   Clear
2:53 AM 24.1 °F 19.7 °F 21.0 °F 88% 30.20 in 10.0 mi SSW 3.5 mph - N/A   Clear
3:53 AM 21.0 °F - 17.1 °F 85% 30.20 in 10.0 mi Calm Calm - N/A   Clear
4:53 AM 23.0 °F - 19.9 °F 88% 30.22 in 10.0 mi Calm Calm - N/A   Clear
5:53 AM 17.1 °F 7.6 °F 15.1 °F 92% 30.23 in 6.0 mi SW 6.9 mph - N/A   Clear
6:53 AM 21.9 °F 12.5 °F 19.0 °F 89% 30.23 in 10.0 mi SW 8.1 mph - N/A   Clear
7:53 AM 32.0 °F 23.0 °F 26.1 °F 79% 30.22 in 10.0 mi WSW 11.5 mph - N/A   Clear
8:53 AM 39.0 °F 31.8 °F 27.0 °F 62% 30.19 in 10.0 mi West 11.5 mph - N/A   Clear
9:53 AM 46.0 °F 41.4 °F 28.0 °F 50% 30.18 in 10.0 mi West 9.2 mph - N/A   Clear
10:53 AM 54.0 °F - 30.0 °F 40% 30.13 in 10.0 mi WSW 8.1 mph - N/A   Clear
11:53 AM 59.0 °F - 30.0 °F 33% 30.09 in 10.0 mi West 6.9 mph - N/A   Clear
12:53 PM 62.1 °F - 28.0 °F 28% 30.07 in 10.0 mi WNW 3.5 mph - N/A   Clear
1:53 PM 63.0 °F - 28.0 °F 27% 30.05 in 10.0 mi Calm Calm - N/A   Clear
2:53 PM 62.1 °F - 28.9 °F 29% 30.05 in 10.0 mi East 3.5 mph - N/A   Clear
3:53 PM 60.1 °F - 28.9 °F 31% 30.05 in 10.0 mi East 5.8 mph - N/A   Clear
4:53 PM 54.0 °F - 28.9 °F 38% 30.05 in 10.0 mi Calm Calm - N/A   Clear
5:53 PM 44.1 °F - 28.0 °F 53% 30.09 in 10.0 mi Calm Calm - N/A   Clear
6:53 PM 44.1 °F 41.5 °F 28.9 °F 55% 30.08 in 10.0 mi ENE 4.6 mph - N/A   Clear
7:53 PM 39.9 °F 37.8 °F 28.0 °F 63% 30.06 in 10.0 mi NNE 3.5 mph - N/A   Clear
8:53 PM 37.9 °F 35.5 °F 27.0 °F 65% 30.04 in 10.0 mi SW 3.5 mph - N/A   Clear
9:53 PM 37.0 °F 33.3 °F 28.0 °F 70% 30.01 in 10.0 mi SSW 4.6 mph - N/A   Clear
10:53 PM 30.0 °F 21.7 °F 24.1 °F 79% 30.00 in 10.0 mi SW 9.2 mph - N/A   Clear
11:53 PM 34.0 °F 28.8 °F 27.0 °F 75% 29.95 in 10.0 mi SW 5.8 mph - N/A   Clear